Weather History for KHWY - October, 2012

Change the Weather History Date:

Monday, October 8, 2012

  Actual Average (KHEF) Record (KHEF)
Temperature  
Mean Temperature 44 °F -  
Max Temperature 53 °F 68 °F 91 °F (2007)
Min Temperature 36 °F 44 °F 26 °F (2001)
Degree Days  
Heating Degree Days 20    
Moisture  
Dew Point 44 °F    
Average Humidity 93    
Maximum Humidity 100    
Minimum Humidity 76    
Precipitation  
Precipitation 0.03 in - - ()
Sea Level Pressure  
Sea Level Pressure 30.24 in    
Wind  
Wind Speed 2 mph (North)    
Max Wind Speed 10 mph    
Max Gust Speed -    
Visibility 8 miles    
Events Fog , Rain    
Averages and records for this station are not official NWS values.
T = Trace of Precipitation, MM = Missing Value Source: NWS Daily Summary

Daily Weather History Graph

Daily Weather History Graph

Search for Another Location

Airport or City:

Trip Planner

Search our weather history database for the weather conditions in past years. The results will help you decide how hot, cold, wet, or windy it might be!

Date:

Astronomy

Oct. 08, 2012 Rise Set
Actual Time 7:13 AM EDT 6:42 PM EDT
Civil Twilight 6:47 AM EDT 7:08 PM EDT
Nautical Twilight 6:16 AM EDT 7:39 PM EDT
Astronomical Twilight 5:45 AM EDT 8:10 PM EDT
Moon No Moon Rise 2:26 PM EDT (10/8)
Length of Visible Light 12h 21m
Length of Day
11h 28m
Waning Gibbous, 46% of the Moon is Illuminated
Oct 8
Waning Gibbous
Oct 15
New
Oct 21
First Quarter
Oct 29
Full
Nov 6
Last Quarter

Hourly Weather History & Observations

Time (EDT) Temp. Windchill Dew Point Humidity Pressure Visibility Wind Dir Wind Speed Gust Speed Precip Events Conditions
12:15 AM 40.1 °F - 40.1 °F 100% 30.18 in 0.8 mi Calm Calm - N/A   Mist
12:55 AM 38.8 °F - 38.8 °F 100% 30.19 in 1.0 mi Calm Calm - N/A   Mist
12:59 AM 39.2 °F - 39.2 °F 100% 30.19 in 3.0 mi Calm Calm - N/A   Clear
1:35 AM 38.8 °F - 38.8 °F 100% 30.20 in 5.0 mi Calm Calm - N/A   Scattered Clouds
2:15 AM 40.8 °F - 40.8 °F 100% 30.20 in 3.0 mi Calm Calm - N/A   Clear
2:17 AM 39.2 °F - 39.2 °F 100% 30.21 in 1.8 mi Calm Calm - N/A   Mist
2:35 AM 39.4 °F - 39.4 °F 100% 30.20 in 1.2 mi Calm Calm - N/A   Mist
2:55 AM 39.2 °F 37.0 °F 39.2 °F 100% 30.19 in 3.0 mi NNW 3.5 mph - N/A   Clear
3:15 AM 38.3 °F - 38.3 °F 100% 30.19 in 1.0 mi Calm Calm - N/A   Mist
3:35 AM 39.0 °F - 39.0 °F 100% 30.19 in 2.0 mi Calm Calm - N/A   Clear
3:55 AM 37.8 °F - 37.8 °F 100% 30.19 in 0.5 mi Calm Calm - N/A Fog Fog
4:15 AM 37.4 °F - 37.4 °F 100% 30.19 in 0.5 mi Calm Calm - N/A Fog Fog
4:35 AM 38.5 °F - 38.5 °F 100% 30.20 in 2.5 mi Calm Calm - N/A   Clear
4:55 AM 37.8 °F - 37.8 °F 100% 30.22 in 0.5 mi Calm Calm - N/A Fog Fog
5:15 AM 36.9 °F - 36.9 °F 100% 30.22 in 1.5 mi Calm Calm - N/A   Mist
5:35 AM 39.0 °F - 39.0 °F 100% 30.21 in 3.0 mi Calm Calm - N/A   Clear
5:55 AM 39.6 °F - 39.6 °F 100% 30.22 in 4.0 mi Calm Calm - N/A   Clear
6:15 AM 40.3 °F - 40.3 °F 100% 30.22 in 4.0 mi Calm Calm - N/A   Clear
6:35 AM 40.5 °F - 40.5 °F 100% 30.22 in 7.0 mi Calm Calm - N/A   Clear
6:55 AM 41.7 °F - 41.7 °F 100% 30.24 in 7.0 mi Calm Calm - N/A   Clear
7:15 AM 42.1 °F 40.2 °F 42.1 °F 100% 30.24 in 7.0 mi North 3.5 mph - N/A   Clear
7:35 AM 42.8 °F - 42.8 °F 100% 30.25 in 10.0 mi Calm Calm - N/A   Scattered Clouds
7:55 AM 43.3 °F - 43.3 °F 100% 30.25 in 10.0 mi Calm Calm - N/A   Scattered Clouds
8:15 AM 43.9 °F - 43.9 °F 100% 30.26 in 10.0 mi Calm Calm - N/A   Scattered Clouds
8:35 AM 45.0 °F - 45.0 °F 100% 30.26 in 10.0 mi Calm Calm - N/A   Mostly Cloudy
8:55 AM 45.9 °F - 45.9 °F 100% 30.28 in 10.0 mi Calm Calm - N/A   Scattered Clouds
9:15 AM 46.4 °F 45.2 °F 46.4 °F 100% 30.28 in 10.0 mi NNE 3.5 mph - N/A   Scattered Clouds
9:35 AM 47.1 °F - 46.8 °F 99% 30.29 in 10.0 mi Calm Calm - N/A   Scattered Clouds
9:55 AM 47.5 °F - 47.1 °F 99% 30.28 in 10.0 mi ENE 3.5 mph - N/A   Scattered Clouds
10:15 AM 48.2 °F - 47.8 °F 99% 30.28 in 10.0 mi Calm Calm - N/A   Overcast
10:35 AM 48.7 °F - 48.4 °F 99% 30.28 in 10.0 mi East 4.6 mph - N/A   Overcast
10:55 AM 49.5 °F - 48.0 °F 95% 30.29 in 10.0 mi ENE 4.6 mph - N/A   Mostly Cloudy
11:15 AM 50.0 °F - 46.9 °F 89% 30.30 in 10.0 mi NNE 3.5 mph - N/A   Mostly Cloudy
11:35 AM 50.9 °F - 46.9 °F 86% 30.30 in 10.0 mi NNE 6.9 mph - N/A   Overcast
11:55 AM 51.1 °F - 46.2 °F 83% 30.30 in 10.0 mi NNE 5.8 mph - N/A   Overcast
12:15 PM 51.8 °F - 46.4 °F 82% 30.30 in 10.0 mi North 5.8 mph - N/A   Overcast
12:35 PM 52.0 °F - 46.4 °F 81% 30.29 in 10.0 mi NNE 4.6 mph - N/A   Overcast
12:55 PM 52.3 °F - 46.8 °F 81% 30.28 in 10.0 mi NE 6.9 mph - N/A   Mostly Cloudy
1:15 PM 52.7 °F - 46.9 °F 81% 30.27 in 10.0 mi NNE 8.1 mph - N/A   Mostly Cloudy
1:35 PM 52.9 °F - 46.8 °F 80% 30.27 in 10.0 mi NNE 4.6 mph - N/A   Overcast
1:55 PM 52.9 °F - 46.8 °F 80% 30.26 in 10.0 mi NNE 5.8 mph - N/A   Overcast
2:15 PM 52.7 °F - 46.0 °F 78% 30.27 in 10.0 mi NE 3.5 mph - N/A   Overcast
2:35 PM 53.1 °F - 45.7 °F 76% 30.27 in 10.0 mi North 3.5 mph - N/A   Overcast
2:55 PM 52.7 °F - 46.0 °F 78% 30.26 in 10.0 mi North 6.9 mph - N/A   Overcast
3:15 PM 52.5 °F - 46.2 °F 79% 30.28 in 10.0 mi NNW 6.9 mph - N/A   Overcast
3:35 PM 52.3 °F - 46.0 °F 79% 30.27 in 10.0 mi NNW 6.9 mph - N/A   Overcast
3:55 PM 52.3 °F - 45.7 °F 78% 30.26 in 10.0 mi North 4.6 mph - N/A   Overcast
4:15 PM 52.7 °F - 46.2 °F 79% 30.24 in 10.0 mi North 9.2 mph - N/A   Overcast
4:35 PM 52.7 °F - 45.7 °F 77% 30.23 in 10.0 mi North 9.2 mph - N/A   Overcast
4:55 PM 52.2 °F - 45.9 °F 79% 30.22 in 10.0 mi NNE 9.2 mph - N/A   Overcast
5:15 PM 51.8 °F - 46.2 °F 81% 30.21 in 10.0 mi NNE 10.4 mph - N/A   Overcast
5:35 PM 51.4 °F - 46.2 °F 82% 30.22 in 10.0 mi NNE 9.2 mph - N/A   Overcast
5:55 PM 51.1 °F - 45.9 °F 82% 30.23 in 10.0 mi North 8.1 mph - N/A   Overcast
6:15 PM 50.9 °F - 46.8 °F 86% 30.25 in 10.0 mi NNW 9.2 mph - N/A Rain Light Rain
6:35 PM 50.0 °F - 47.5 °F 91% 30.22 in 10.0 mi North 6.9 mph - N/A Rain Light Rain
6:55 PM 49.5 °F - 46.9 °F 91% 30.23 in 10.0 mi North 5.8 mph - N/A   Overcast
7:15 PM 49.1 °F - 46.9 °F 92% 30.23 in 10.0 mi NNE 3.5 mph - N/A   Drizzle
7:35 PM 48.4 °F - 46.6 °F 93% 30.23 in 10.0 mi North 3.5 mph - N/A Rain Rain
7:55 PM 47.8 °F - 45.9 °F 93% 30.23 in 10.0 mi North 3.5 mph - N/A Rain Rain
8:35 PM 47.5 °F - 46.4 °F 96% 30.22 in 10.0 mi North 4.6 mph - N/A   Overcast
8:55 PM 47.5 °F - 46.6 °F 97% 30.23 in 10.0 mi NNW 5.8 mph - N/A Rain Light Rain
9:15 PM 47.3 °F - 47.3 °F 100% 30.23 in 10.0 mi NW 4.6 mph - N/A   Drizzle
9:35 PM 47.3 °F - 47.3 °F 100% 30.23 in 7.0 mi NW 3.5 mph - 0.01 in Rain Rain
9:55 PM 47.3 °F - 47.3 °F 100% 30.22 in 10.0 mi North 5.8 mph - 0.01 in   Light Drizzle
10:15 PM 47.5 °F - 47.5 °F 100% 30.23 in 10.0 mi North 4.6 mph - N/A   Overcast
10:35 PM 47.5 °F - 47.5 °F 100% 30.23 in 10.0 mi NNW 4.6 mph - N/A Rain Light Rain
10:55 PM 47.3 °F - 47.3 °F 100% 30.22 in 10.0 mi NNW 3.5 mph - N/A   Overcast
11:15 PM 47.3 °F - 47.3 °F 100% 30.23 in 10.0 mi NW 3.5 mph - N/A Rain Light Rain
11:55 PM 46.9 °F - 46.9 °F 100% 30.22 in 10.0 mi NNW 4.6 mph - 0.02 in   Drizzle